FW9021 Weather Reports


Display with metric or nautical units.
time (UTC)temp
F
wind
direction
speed
MPH
gust
MPH
rain 1hr
in
rain 24hr
in
rain mn
in
humidity
%
barometer
mb
20260506013538 66 92 1.0 3.0 0.00 0.00 0.00 62 1012.5
20260506013048 66 50 1.0 3.0 0.00 0.00 0.00 63 1012.3
20260506012538 66 131 1.0 3.0 0.00 0.00 0.00 63 1012.4
20260506012038 66 131 1.0 3.0 0.00 0.00 0.00 62 1012.4
20260506011615 67 134 1.0 3.0 0.00 0.00 0.00 61 1012.2
20260506011038 67 134 0.0 3.0 0.00 0.00 0.00 60 1012.2
20260506010538 67 0 1.0 3.0 0.00 0.00 0.00 59 1012.3
20260506010048 67 134 1.0 2.0 0.00 0.00 0.00 59 1012.3
20260506005538 68 134 0.0 2.0 0.00 0.00 0.00 58 1012.4
20260506005043 68 134 0.0 2.0 0.00 0.00 0.00 57 1012.3
20260506004551 69 134 0.0 2.0 0.00 0.00 0.00 57 1012.4
20260506004038 69 134 0.0 2.0 0.00 0.00 0.00 56 1012.3
20260506003539 69 0 0.0 2.0 0.00 0.00 0.00 56 1012.3
20260506003051 69 0 0.0 3.0 0.00 0.00 0.00 55 1012.3
20260506002538 70 0 0.0 3.0 0.00 0.00 0.00 54 1012.4
20260506002038 70 76 0.0 3.0 0.00 0.00 0.00 53 1012.7
20260506001557 70 0 1.0 3.0 0.00 0.00 0.00 52 1012.5
20260506001038 70 282 0.0 3.0 0.00 0.00 0.00 53 1012.4
20260506000538 70 0 1.0 3.0 0.00 0.00 0.00 51 1012.4
20260506000057 70 0 0.0 3.0 0.00 0.00 0.00 52 1012.5
20260505235538 70 107 0.0 4.0 0.00 0.00 0.00 52 1012.4
20260505235038 70 252 2.0 7.0 0.00 0.00 0.00 51 1012.4
20260505234546 70 304 2.0 7.0 0.00 0.00 0.00 50 1012.2
20260505234042 70 275 3.0 7.0 0.00 0.00 0.00 52 1012.1
20260505233538 69 261 1.0 7.0 0.00 0.00 0.00 54 1012.1
20260505233048 69 227 1.0 3.0 0.00 0.00 0.00 56 1012.0
20260505232538 69 9 0.0 3.0 0.00 0.00 0.00 57 1011.8
20260505232039 69 90 1.0 3.0 0.00 0.00 0.00 55 1011.8
20260505231549 69 70 1.0 4.0 0.00 0.00 0.00 57 1011.9
20260505231038 70 234 0.0 4.0 0.00 0.00 0.00 55 1012.1
20260505230538 70 102 1.0 7.0 0.00 0.00 0.00 55 1012.1
20260505230059 70 0 1.0 7.0 0.00 0.00 0.00 52 1012.2
20260505225543 70 279 3.0 7.0 0.00 0.00 0.00 52 1012.4
20260505225038 71 294 2.0 6.0 0.00 0.00 0.00 53 1012.2
20260505224550 71 239 3.0 6.0 0.00 0.00 0.00 51 1012.1
20260505224039 71 298 2.0 6.0 0.00 0.00 0.00 52 1012.1
20260505223545 71 294 1.0 4.0 0.00 0.00 0.00 48 1012.5
20260505223052 72 284 1.0 6.0 0.00 0.00 0.00 49 1012.6
20260505222538 72 248 1.0 7.0 0.00 0.00 0.00 50 1012.8
20260505222038 72 266 2.0 10.0 0.00 0.00 0.00 47 1012.8
20260505221601 72 246 5.0 11.0 0.00 0.00 0.00 47 1012.9
20260505221039 72 240 5.0 12.0 0.00 0.00 0.00 46 1012.9
20260505220539 72 252 5.0 12.0 0.00 0.00 0.00 44 1012.8
20260505220100 72 248 6.0 12.0 0.00 0.00 0.00 44 1012.8
20260505215541 72 232 5.0 10.0 0.00 0.00 0.00 44 1012.7
20260505215038 72 259 4.0 10.0 0.00 0.00 0.00 45 1012.7
20260505214553 73 231 5.0 11.0 0.00 0.00 0.00 45 1012.7
20260505214039 73 278 4.0 12.0 0.00 0.00 0.00 44 1012.7
20260505213539 73 244 6.0 12.0 0.00 0.00 0.00 45 1012.5
20260505213049 73 273 6.0 12.0 0.00 0.00 0.00 44 1012.2
20260505212538 73 300 5.0 16.0 0.00 0.00 0.00 43 1012.1
20260505212038 73 264 7.0 16.0 0.00 0.00 0.00 42 1012.3
20260505211551 74 269 8.0 15.0 0.00 0.00 0.00 44 1012.4
20260505211041 74 286 4.0 13.0 0.00 0.00 0.00 41 1012.4
20260505210538 74 266 6.0 13.0 0.00 0.00 0.00 44 1012.4
20260505210053 74 265 4.0 13.0 0.00 0.00 0.00 44 1012.5
20260505205538 74 297 7.0 13.0 0.00 0.00 0.00 45 1012.3
20260505205040 74 274 7.0 13.0 0.00 0.00 0.00 44 1012.2
20260505204557 74 289 7.0 13.0 0.00 0.00 0.00 46 1012.3
20260505204041 74 261 5.0 15.0 0.00 0.00 0.00 45 1012.3
20260505203540 74 259 6.0 15.0 0.00 0.00 0.00 45 1012.5
20260505203050 74 281 5.0 14.0 0.00 0.00 0.00 43 1012.5
20260505202539 74 248 8.0 14.0 0.00 0.00 0.00 42 1012.5
20260505202038 74 269 8.0 15.0 0.00 0.00 0.00 41 1012.4
20260505201550 74 296 8.0 15.0 0.00 0.00 0.00 44 1012.3
20260505201039 74 269 7.0 15.0 0.00 0.00 0.00 44 1012.2
20260505200538 73 266 7.0 12.0 0.00 0.00 0.00 46 1012.4
20260505200048 74 278 5.0 13.0 0.00 0.00 0.00 46 1012.4
20260505195538 73 254 8.0 13.0 0.00 0.00 0.00 46 1012.7
20260505195038 73 314 7.0 17.0 0.00 0.00 0.00 45 1012.8
20260505194558 73 261 9.0 17.0 0.00 0.00 0.00 46 1012.8
20260505194040 73 263 7.0 12.0 0.00 0.00 0.00 48 1012.7
20260505193539 73 342 7.0 11.0 0.00 0.00 0.00 46 1012.9
20260505193046 73 211 5.0 10.0 0.00 0.00 0.00 47 1012.9
20260505192538 73 227 3.0 10.0 0.00 0.00 0.00 47 1012.9
20260505192041 73 306 6.0 14.0 0.00 0.00 0.00 47 1012.9
20260505191543 73 300 8.0 16.0 0.00 0.00 0.00 48 1013.1
20260505191038 73 276 9.0 16.0 0.00 0.00 0.00 48 1013.3
20260505190539 73 345 7.0 14.0 0.00 0.00 0.00 47 1013.5
20260505190043 73 233 7.0 13.0 0.00 0.00 0.00 48 1013.6
20260505185539 73 266 7.0 15.0 0.00 0.00 0.00 47 1013.6
20260505185043 72 264 7.0 15.0 0.00 0.00 0.00 45 1013.8
20260505184552 72 222 6.0 14.0 0.00 0.00 0.00 45 1013.7
20260505184041 72 254 6.0 14.0 0.00 0.00 0.00 47 1013.7
20260505183543 72 254 6.0 14.0 0.00 0.00 0.00 46 1013.7
20260505183052 72 267 7.0 14.0 0.00 0.00 0.00 45 1013.9
20260505182538 72 269 6.0 14.0 0.00 0.00 0.00 44 1013.8
20260505182038 72 250 9.0 14.0 0.00 0.00 0.00 46 1013.9
20260505181544 72 238 7.0 12.0 0.00 0.00 0.00 43 1013.8
20260505181042 72 342 6.0 12.0 0.00 0.00 0.00 45 1014.0
20260505180538 72 254 6.0 12.0 0.00 0.00 0.00 46 1013.9
20260505180052 72 298 7.0 14.0 0.00 0.00 0.00 45 1014.0
20260505175541 72 285 7.0 18.0 0.00 0.00 0.00 44 1014.1
20260505175041 72 262 11.0 18.0 0.00 0.00 0.00 44 1014.4
20260505174551 72 269 11.0 16.0 0.00 0.00 0.00 44 1014.3
20260505174039 72 253 9.0 16.0 0.00 0.00 0.00 42 1014.4
20260505173539 72 257 5.0 14.0 0.00 0.00 0.00 43 1014.5
20260505173045 71 261 8.0 15.0 0.00 0.00 0.00 41 1014.6
20260505172540 71 287 7.0 15.0 0.00 0.00 0.00 42 1014.7
20260505172041 71 245 8.0 15.0 0.00 0.00 0.00 46 1014.8
20260505171549 71 239 6.0 12.0 0.00 0.00 0.00 43 1014.8
20260505171040 71 259 4.0 11.0 0.00 0.00 0.00 43 1014.9
20260505170541 71 259 6.0 11.0 0.00 0.00 0.00 40 1014.9
20260505170051 71 178 6.0 11.0 0.00 0.00 0.00 41 1014.9
20260505165540 71 268 6.0 14.0 0.00 0.00 0.00 41 1014.8
20260505165040 71 281 3.0 14.0 0.00 0.00 0.00 43 1014.6
20260505164558 70 278 5.0 14.0 0.00 0.00 0.00 42 1014.6
20260505164041 70 281 5.0 15.0 0.00 0.00 0.00 40 1014.6
20260505163540 70 332 6.0 15.0 0.00 0.00 0.00 38 1014.9
20260505163048 70 297 5.0 15.0 0.00 0.00 0.00 41 1014.9
20260505162539 69 257 6.0 16.0 0.00 0.00 0.00 43 1015.2
20260505162040 69 264 5.0 18.0 0.00 0.00 0.00 48 1015.2
20260505161555 69 265 11.0 19.0 0.00 0.00 0.00 50 1015.2
20260505161042 69 259 10.0 19.0 0.00 0.00 0.00 49 1015.2
20260505160540 69 241 9.0 16.0 0.00 0.00 0.00 51 1015.2
20260505153104 68 296 8.0 26.0 0.00 0.00 0.00 57 1015.2
20260505152543 67 240 13.0 26.0 0.00 0.00 0.00 58 1015.3
20260505152039 67 228 11.0 21.0 0.00 0.00 0.00 56 1015.3
20260505151553 67 240 7.0 14.0 0.00 0.00 0.00 59 1015.3
20260505151040 66 207 3.0 8.0 0.00 0.00 0.00 59 1015.4
20260505150540 66 259 1.0 4.0 0.00 0.00 0.00 60 1015.5
20260505140542 61 246 2.0 4.0 0.00 0.00 0.00 68 1015.4
20260505125038 55 64 0.0 3.0 0.00 0.00 0.00 82 1014.8
20260505124606 55 0 1.0 3.0 0.00 0.00 0.00 83 1014.7
20260505124038 55 77 1.0 3.0 0.00 0.00 0.00 84 1014.8
20260505123537 54 0 1.0 3.0 0.00 0.00 0.00 86 1014.7
20260505123058 54 0 0.0 3.0 0.00 0.00 0.00 87 1014.8
20260505122538 53 0 0.0 3.0 0.00 0.00 0.00 87 1014.9
20260505122038 53 0 1.0 3.0 0.00 0.00 0.00 87 1014.6
20260505121549 52 27 1.0 3.0 0.00 0.00 0.00 87 1014.6
20260505121039 52 0 0.0 2.0 0.00 0.00 0.00 88 1014.6
20260505120539 51 46 0.0 2.0 0.00 0.00 0.00 88 1014.7
20260505120100 50 0 0.0 2.0 0.00 0.00 0.00 88 1014.6
20260505115538 50 64 0.0 2.0 0.00 0.00 0.00 88 1014.6
20260505115041 50 64 0.0 2.0 0.00 0.00 0.00 88 1014.5
20260505114545 49 0 0.0 2.0 0.00 0.00 0.00 88 1014.5
20260505114038 49 0 0.0 2.0 0.00 0.00 0.00 88 1014.6
20260505113539 49 0 0.0 2.0 0.00 0.00 0.00 88 1014.4
20260505113110 49 64 0.0 2.0 0.00 0.00 0.00 88 1014.3
20260505112540 49 37 0.0 3.0 0.00 0.00 0.00 88 1014.3
20260505112040 49 0 0.0 4.0 0.00 0.00 0.00 88 1014.2
20260505111553 49 34 2.0 4.0 0.00 0.00 0.00 88 1014.2
20260505111043 49 28 2.0 4.0 0.00 0.00 0.00 88 1014.3
20260505110540 49 0 0.0 2.0 0.00 0.00 0.00 88 1014.1
20260505102040 50 0 0.0 3.0 0.00 0.00 0.00 87 1013.9
20260505101557 50 0 0.0 3.0 0.00 0.00 0.00 87 1013.8
20260505101043 50 75 1.0 3.0 0.00 0.00 0.00 87 1013.9
20260505100542 50 0 1.0 4.0 0.00 0.00 0.00 87 1014.0
20260505100050 50 5 0.0 5.0 0.00 0.00 0.00 86 1014.0
20260505095540 50 50 0.0 5.0 0.00 0.00 0.00 86 1013.9
20260505095041 50 0 2.0 5.0 0.00 0.00 0.00 86 1013.8
20260505094549 51 26 1.0 5.0 0.00 0.00 0.00 86 1013.9
20260505094040 51 0 1.0 5.0 0.00 0.00 0.00 85 1013.9
20260505093540 51 20 1.0 3.0 0.00 0.00 0.00 85 1014.0
20260505093103 51 109 1.0 3.0 0.00 0.00 0.00 86 1013.9
20260505092541 51 30 0.0 4.0 0.00 0.00 0.00 85 1014.0
20260505092041 51 0 1.0 4.0 0.00 0.00 0.00 85 1013.9
20260505091550 51 33 1.0 3.0 0.00 0.00 0.00 84 1013.9
20260505091041 51 0 1.0 3.0 0.00 0.00 0.00 84 1013.9
20260505090540 51 57 0.0 2.0 0.00 0.00 0.00 84 1013.9
20260505090050 51 0 0.0 2.0 0.00 0.00 0.00 84 1014.1
20260505085540 51 57 0.0 2.0 0.00 0.00 0.00 84 1014.0
20260505085040 52 0 0.0 2.0 0.00 0.00 0.00 84 1014.0
20260505084555 52 0 0.0 3.0 0.00 0.00 0.00 85 1013.9
20260505084040 52 0 1.0 3.0 0.00 0.00 0.00 84 1014.0
20260505083539 52 20 0.0 3.0 0.00 0.00 0.00 84 1013.9
20260505083054 52 75 1.0 3.0 0.00 0.00 0.00 84 1014.0
20260505082540 52 0 0.0 4.0 0.00 0.00 0.00 83 1014.1
20260505082040 52 42 2.0 4.0 0.00 0.00 0.00 83 1014.1
20260505081553 52 31 0.0 4.0 0.00 0.00 0.00 83 1014.1
20260505081039 53 0 1.0 4.0 0.00 0.00 0.00 83 1014.0
20260505080539 53 42 0.0 3.0 0.00 0.00 0.00 82 1014.0
20260505080106 53 0 0.0 2.0 0.00 0.00 0.00 80 1014.0
20260505075538 53 0 1.0 3.0 0.00 0.00 0.00 81 1014.0
20260505075038 53 71 0.0 3.0 0.00 0.00 0.00 81 1014.1
20260505074551 53 65 1.0 3.0 0.00 0.00 0.00 81 1014.0
20260505074038 54 96 0.0 3.0 0.00 0.00 0.00 80 1014.1
20260505073538 54 0 1.0 2.0 0.00 0.00 0.00 81 1014.0
20260505073051 54 78 0.0 2.0 0.00 0.00 0.00 80 1014.0
20260505072538 54 0 0.0 4.0 0.00 0.00 0.00 79 1013.9
20260505072038 54 96 1.0 4.0 0.00 0.00 0.00 80 1014.1
20260505071553 54 41 0.0 4.0 0.00 0.00 0.00 80 1014.2
20260505071038 55 105 1.0 3.0 0.00 0.00 0.00 79 1014.0
20260505070538 55 27 1.0 3.0 0.00 0.00 0.00 80 1014.1
20260505070052 55 0 1.0 3.0 0.00 0.00 0.00 78 1014.0
20260505065538 55 115 2.0 3.0 0.00 0.00 0.00 79 1013.8
20260505065038 55 24 1.0 3.0 0.00 0.00 0.00 79 1013.9
20260505064600 55 96 1.0 3.0 0.00 0.00 0.00 78 1013.9
20260505064038 55 107 0.0 3.0 0.00 0.00 0.00 78 1014.0
20260505063541 55 82 0.0 3.0 0.00 0.00 0.00 78 1013.9
20260505063055 56 49 1.0 4.0 0.00 0.00 0.00 79 1013.8
20260505062538 56 71 2.0 4.0 0.00 0.00 0.00 80 1013.9
20260505062039 56 26 1.0 3.0 0.00 0.00 0.00 78 1013.9
20260505061552 56 117 1.0 3.0 0.00 0.00 0.00 77 1014.0
20260505061038 56 102 1.0 3.0 0.00 0.00 0.00 77 1013.9
20260505060538 56 58 0.0 4.0 0.00 0.00 0.00 78 1014.1
20260505060054 57 0 0.0 4.0 0.00 0.00 0.00 78 1014.1
20260505055539 57 30 1.0 4.0 0.00 0.00 0.00 79 1014.1
20260505055038 57 39 1.0 4.0 0.00 0.00 0.00 77 1014.1
20260505054551 57 57 0.0 3.0 0.00 0.00 0.00 76 1014.2
20260505054040 57 0 0.0 3.0 0.00 0.00 0.00 76 1014.2
20260505053614 57 26 0.0 3.0 0.00 0.00 0.00 77 1014.3
20260505053111 57 0 0.0 3.0 0.00 0.00 0.00 76 1014.1
20260505052538 57 0 1.0 3.0 0.00 0.00 0.00 76 1014.3
20260505052041 57 93 1.0 3.0 0.00 0.00 0.00 77 1014.3
20260505051549 57 98 0.0 2.0 0.00 0.00 0.00 78 1014.3
20260505051038 57 98 1.0 3.0 0.00 0.00 0.00 78 1014.2
20260505050538 57 98 1.0 3.0 0.00 0.00 0.00 78 1014.3
20260505041546 57 65 0.0 2.0 0.00 0.00 0.00 78 1014.1
20260505041044 58 65 0.0 2.0 0.00 0.00 0.00 79 1014.2
20260505040541 58 90 0.0 2.0 0.00 0.00 0.00 79 1014.1
20260505040054 58 52 0.0 2.0 0.00 0.00 0.00 78 1014.1
20260505035540 58 0 0.0 2.0 0.00 0.00 0.00 78 1014.0
20260505035040 58 0 0.0 2.0 0.00 0.00 0.00 78 1014.1
20260505034612 58 109 0.0 2.0 0.00 0.00 0.00 77 1014.2
20260505034040 58 0 0.0 3.0 0.00 0.00 0.00 77 1014.2
20260505033540 58 109 1.0 3.0 0.00 0.00 0.00 76 1014.2
20260505033053 58 103 0.0 3.0 0.00 0.00 0.00 75 1014.2
20260505032540 58 103 1.0 3.0 0.00 0.00 0.00 75 1014.2
20260505032039 58 0 1.0 3.0 0.00 0.00 0.00 75 1014.2
20260505031546 58 80 1.0 2.0 0.00 0.00 0.00 75 1014.3
20260505031041 59 98 0.0 4.0 0.00 0.00 0.00 74 1014.3
20260505030541 59 77 1.0 4.0 0.00 0.00 0.00 75 1014.3
20260505030051 59 38 0.0 2.0 0.00 0.00 0.00 75 1014.2
20260505025542 59 0 0.0 2.0 0.00 0.00 0.00 74 1014.2
20260505025037 60 0 0.0 4.0 0.00 0.00 0.00 74 1014.3
20260505024544 60 49 2.0 4.0 0.00 0.00 0.00 74 1014.3
20260505024041 60 85 0.0 2.0 0.00 0.00 0.00 74 1014.4
20260505023541 60 88 1.0 3.0 0.00 0.00 0.00 74 1014.2
20260505023048 60 0 0.0 3.0 0.00 0.00 0.00 74 1014.2
20260505022543 61 0 0.0 3.0 0.00 0.00 0.00 74 1014.1
20260505022040 61 0 0.0 3.0 0.00 0.00 0.00 76 1014.2
20260505021554 61 0 0.0 3.0 0.00 0.00 0.00 75 1014.1
20260505021041 61 100 1.0 3.0 0.00 0.00 0.00 74 1014.1
20260505020540 61 100 0.0 2.0 0.00 0.00 0.00 74 1014.1
20260505020049 61 111 1.0 2.0 0.00 0.00 0.00 74 1014.0
20260505015541 62 80 1.0 2.0 0.00 0.00 0.00 74 1014.0
20260505015040 62 93 0.0 1.0 0.00 0.00 0.00 75 1014.0
20260505014546 62 0 0.0 1.0 0.00 0.00 0.00 73 1013.9
20260505014040 62 0 0.0 2.0 0.00 0.00 0.00 73 1013.9